Regional Weather Roundup
Issued by NWS

Home | Current Version | Previous Version | Text Only | Print | Product List | Glossary On
Versions: 1 2 3 4 5 6 7 8 9 10 11 12 13 14 15 16 17 18 19 20 21 22 23 24 25 26 27 28 29 30 31 32 33 34 35 36 37 38 39 40 41 42 43 44 45 46 47 48 49 50
000
ASUS44 KJAN 052110
RWRMS

MISSISSIPPI HOURLY WEATHER ROUNDUP
NATIONAL WEATHER SERVICE JACKSON MS
400 PM CDT TUE MAY 05 2015

NOTE: "FAIR: INDICATES FEW OR NO CLOUDS BELOW 12,000 FEET WITH NO
SIGNIFICANT WEATHER AND/OR OBSTRUCTIONS TO VISIBILITY.

MSZ001>002-007>008-010>013-018>021-025>028-034>036-052200-
NORTHWEST MISSISSIPPI

CITY           SKY/WX    TMP DP  RH WIND       PRES   REMARKS
CLARKSDALE     PTSUNNY   82  55  39 SE13      30.13F
CLEVELAND      FAIR      83  54  37 SE15      30.11F
GREENWOOD      MOSUNNY   83  52  34 SE12      30.13F
GREENVILLE     PTSUNNY   84  51  31 SE16      30.10F
OLIVE BRANCH   PTSUNNY   81  52  36 SE8       30.15F
OXFORD         FAIR      81  50  34 SE7G17    30.18F
TUNICA         CLEAR     82  50  32 SE10G17   30.14F
$$

MSZ003>006-009-014>017-022>024-029>033-037>039-052200-
NORTHEAST MISSISSIPPI

CITY           SKY/WX    TMP DP  RH WIND       PRES   REMARKS
COLUMBUS AFB   SUNNY     88  52  29 S10       30.16F
CORINTH        FAIR      84  50  30 S6G14     30.16F
GOLDN TRIANGLE PTSUNNY   84  55  37 SE12      30.16F
STARKVILLE     MOCLDY    79  55  44 SE5       30.16F
TUPELO         MOSUNNY   85  50  29 S10       30.16F
$$

MSZ040-058-052200-
CENTRAL MISSISSIPPI

CITY           SKY/WX    TMP DP  RH WIND       PRES   REMARKS
JACKSON INTL   MOSUNNY   85  54  34 SE12      30.12F
JACKSON HAWKNS MOSUNNY   83  54  36 S9        30.13F
MERIDIAN KEY   CLOUDY    80  54  40 E7        30.14F
MERIDIAN NAS   MOSUNNY   84  53  34 E13G21    30.15F
RAYMOND        FAIR      82  77  83 SE7G14    30.11F HX  91
VICKSBURG      PTSUNNY   84  58  40 S14G20    30.10F
$$

MSZ059>079-052200-
SOUTH MISSISSIPPI

CITY           SKY/WX    TMP DP  RH WIND       PRES   REMARKS
BROOKHAVEN     FAIR      84  57  39 SE3       30.13F
HATTIESBURG    MOSUNNY   83  55  38 SE10      30.12F
MCCOMB         MOSUNNY   83  58  42 SE9       30.11F
NATCHEZ        PTSUNNY   81  61  50 SE6       30.10F
PINE BELT      PTSUNNY   84  55  37 E9        30.14F
$$

MSZ080>082-052200-
COASTAL MISSISSIPPI

CITY           SKY/WX    TMP DP  RH WIND       PRES   REMARKS
BAY ST LOUIS   MOSUNNY   79  55  44 MISG      30.14F
BILOXI         SUNNY     78  61  54 SE17      30.12F
PASCAGOULA     SUNNY     79  60  52 SE13G21   30.13F
GULFPORT       SUNNY     78  60  53 SE21      30.13F
$$



USA.gov is the U.S. government's official web portal to all federal, state and local government web resources and services.